TimeCDT,TemperatureF,Dew PointF,Humidity,Sea Level PressureIn,VisibilityMPH,Wind Direction,Wind SpeedMPH,Gust SpeedMPH,PrecipitationIn,Events,Conditions,WindDirDegrees,DateUTC
12:15 AM,59.0,53.6,82,29.99,10.0,Calm,Calm,-,N/A,,Clear,0,2013-07-24 05:15:00
12:35 AM,57.2,53.6,88,29.99,10.0,East,5.8,-,N/A,,Clear,80,2013-07-24 05:35:00
12:55 AM,55.4,51.8,88,30.00,10.0,East,4.6,-,N/A,,Clear,80,2013-07-24 05:55:00
1:15 AM,55.4,53.6,94,30.00,10.0,East,4.6,-,N/A,,Clear,90,2013-07-24 06:15:00
1:35 AM,55.4,53.6,94,30.00,10.0,ENE,3.5,-,N/A,,Clear,70,2013-07-24 06:35:00
1:55 AM,55.4,51.8,88,30.00,10.0,ENE,4.6,-,N/A,,Clear,70,2013-07-24 06:55:00
2:15 AM,55.4,51.8,88,30.01,10.0,ENE,3.5,-,N/A,,Clear,70,2013-07-24 07:15:00
2:35 AM,55.4,51.8,88,30.02,10.0,East,4.6,-,N/A,,Clear,80,2013-07-24 07:35:00
2:55 AM,55.4,51.8,88,30.02,10.0,ENE,4.6,-,N/A,,Clear,70,2013-07-24 07:55:00
3:15 AM,53.6,51.8,94,30.01,10.0,NE,3.5,-,N/A,,Clear,40,2013-07-24 08:15:00
3:35 AM,55.4,51.8,88,30.01,10.0,Calm,Calm,-,N/A,,Clear,0,2013-07-24 08:35:00
3:55 AM,55.4,51.8,88,30.01,10.0,Calm,Calm,-,N/A,,Clear,0,2013-07-24 08:55:00
4:15 AM,55.4,51.8,88,30.01,10.0,NE,3.5,-,N/A,,Clear,50,2013-07-24 09:15:00
4:35 AM,55.4,53.6,94,30.03,10.0,Calm,Calm,-,N/A,,Clear,0,2013-07-24 09:35:00
4:55 AM,55.4,51.8,88,30.04,10.0,Calm,Calm,-,N/A,,Clear,0,2013-07-24 09:55:00
5:15 AM,55.4,51.8,88,30.04,10.0,NE,3.5,-,N/A,,Clear,40,2013-07-24 10:15:00
5:35 AM,53.6,51.8,94,30.04,10.0,NE,4.6,-,N/A,,Clear,50,2013-07-24 10:35:00
5:55 AM,53.6,51.8,94,30.04,10.0,Calm,Calm,-,N/A,,Clear,0,2013-07-24 10:55:00
6:15 AM,55.4,53.6,94,30.06,10.0,Calm,Calm,-,N/A,,Clear,0,2013-07-24 11:15:00
6:35 AM,55.4,53.6,94,30.06,10.0,Calm,Calm,-,N/A,,Clear,0,2013-07-24 11:35:00
6:55 AM,59.0,55.4,88,30.06,10.0,Calm,Calm,-,N/A,,Clear,0,2013-07-24 11:55:00
7:35 AM,62.6,55.4,77,30.06,10.0,ENE,6.9,-,N/A,,Clear,70,2013-07-24 12:35:00
7:55 AM,62.6,55.4,77,30.07,10.0,ENE,5.8,-,N/A,,Clear,60,2013-07-24 12:55:00
8:15 AM,64.4,55.4,73,30.07,10.0,ENE,5.8,-,N/A,,Clear,70,2013-07-24 13:15:00
8:35 AM,64.4,55.4,73,30.07,10.0,East,5.8,-,N/A,,Clear,80,2013-07-24 13:35:00
8:55 AM,66.2,55.4,68,30.07,10.0,East,8.1,-,N/A,,Partly Cloudy,80,2013-07-24 13:55:00
9:15 AM,66.2,55.4,68,30.06,10.0,East,9.2,-,N/A,,Partly Cloudy,90,2013-07-24 14:15:00
9:35 AM,66.2,53.6,64,30.07,10.0,East,8.1,-,N/A,,Partly Cloudy,90,2013-07-24 14:35:00
9:55 AM,68.0,53.6,60,30.07,10.0,ENE,9.2,-,N/A,,Partly Cloudy,70,2013-07-24 14:55:00
10:15 AM,69.8,53.6,56,30.08,10.0,NE,8.1,-,N/A,,Partly Cloudy,50,2013-07-24 15:15:00
10:35 AM,71.6,53.6,53,30.07,10.0,NNE,6.9,-,N/A,,Partly Cloudy,30,2013-07-24 15:35:00
10:55 AM,71.6,53.6,53,30.08,10.0,NE,9.2,-,N/A,,Clear,40,2013-07-24 15:55:00
11:15 AM,71.6,53.6,53,30.08,10.0,East,5.8,-,N/A,,Scattered Clouds,80,2013-07-24 16:15:00
11:35 AM,71.6,53.6,53,30.09,10.0,North,5.8,-,N/A,,Mostly Cloudy,360,2013-07-24 16:35:00
11:55 AM,71.6,53.6,53,30.09,10.0,ENE,9.2,-,N/A,,Mostly Cloudy,60,2013-07-24 16:55:00
12:15 PM,73.4,53.6,50,30.08,10.0,NE,9.2,-,N/A,,Mostly Cloudy,40,2013-07-24 17:15:00
12:35 PM,73.4,53.6,50,30.08,10.0,ENE,9.2,-,N/A,,Scattered Clouds,60,2013-07-24 17:35:00
12:55 PM,73.4,53.6,50,30.08,10.0,NNE,9.2,-,N/A,,Scattered Clouds,20,2013-07-24 17:55:00
1:15 PM,73.4,53.6,50,30.07,10.0,North,9.2,-,N/A,,Partly Cloudy,10,2013-07-24 18:15:00
1:35 PM,75.2,53.6,47,30.07,10.0,North,4.6,-,N/A,,Scattered Clouds,360,2013-07-24 18:35:00
2:15 PM,73.4,51.8,47,30.07,10.0,North,5.8,-,N/A,,Mostly Cloudy,10,2013-07-24 19:15:00
2:35 PM,75.2,53.6,47,30.06,10.0,NE,9.2,-,N/A,,Scattered Clouds,40,2013-07-24 19:35:00
2:55 PM,75.2,51.8,44,30.06,10.0,NNW,8.1,-,N/A,,Clear,340,2013-07-24 19:55:00
3:35 PM,75.2,51.8,44,30.04,10.0,NNE,6.9,-,N/A,,Partly Cloudy,20,2013-07-24 20:35:00
3:55 PM,75.2,51.8,44,30.05,10.0,North,10.4,-,N/A,,Partly Cloudy,10,2013-07-24 20:55:00
4:15 PM,75.2,53.6,47,30.04,10.0,ENE,4.6,-,N/A,,Clear,60,2013-07-24 21:15:00
4:35 PM,77.0,53.6,44,30.04,10.0,NNE,5.8,-,N/A,,Partly Cloudy,20,2013-07-24 21:35:00
4:55 PM,78.8,53.6,42,30.04,10.0,NNE,6.9,-,N/A,,Mostly Cloudy,30,2013-07-24 21:55:00
5:15 PM,75.2,51.8,44,30.05,10.0,NW,4.6,-,N/A,,Mostly Cloudy,320,2013-07-24 22:15:00
5:35 PM,73.4,53.6,50,30.05,10.0,NNW,5.8,-,N/A,,Mostly Cloudy,340,2013-07-24 22:35:00
5:55 PM,73.4,51.8,47,30.05,10.0,North,5.8,-,N/A,,Clear,350,2013-07-24 22:55:00
6:15 PM,75.2,51.8,44,30.05,10.0,North,6.9,-,N/A,,Scattered Clouds,360,2013-07-24 23:15:00
6:35 PM,75.2,51.8,44,30.05,10.0,North,5.8,-,N/A,,Partly Cloudy,350,2013-07-24 23:35:00
6:55 PM,73.4,51.8,47,30.05,10.0,NNE,8.1,-,N/A,,Clear,30,2013-07-24 23:55:00
7:15 PM,71.6,51.8,50,30.05,10.0,NNE,3.5,-,N/A,,Clear,30,2013-07-25 00:15:00
7:35 PM,69.8,53.6,56,30.04,10.0,ENE,4.6,-,N/A,,Clear,60,2013-07-25 00:35:00
7:55 PM,68.0,55.4,64,30.04,10.0,East,3.5,-,N/A,,Clear,100,2013-07-25 00:55:00
8:15 PM,66.2,55.4,68,30.04,10.0,Calm,Calm,-,N/A,,Clear,0,2013-07-25 01:15:00
8:35 PM,64.4,53.6,68,30.04,10.0,Calm,Calm,-,N/A,,Clear,0,2013-07-25 01:35:00
8:55 PM,62.6,53.6,72,30.04,10.0,Calm,Calm,-,N/A,,Clear,0,2013-07-25 01:55:00
9:15 PM,62.6,53.6,72,30.05,10.0,Calm,Calm,-,N/A,,Clear,0,2013-07-25 02:15:00
9:35 PM,59.0,53.6,82,30.05,10.0,Calm,Calm,-,N/A,,Clear,0,2013-07-25 02:35:00
9:55 PM,57.2,53.6,88,30.05,10.0,Calm,Calm,-,N/A,,Clear,0,2013-07-25 02:55:00
10:15 PM,59.0,55.4,88,30.06,10.0,Calm,Calm,-,N/A,,Clear,0,2013-07-25 03:15:00
10:35 PM,59.0,55.4,88,30.06,10.0,Calm,Calm,-,N/A,,Clear,0,2013-07-25 03:35:00
11:15 PM,57.2,53.6,88,30.07,10.0,Calm,Calm,-,N/A,,Clear,0,2013-07-25 04:15:00
11:35 PM,55.4,51.8,88,30.07,10.0,Calm,Calm,-,N/A,,Clear,0,2013-07-25 04:35:00
11:56 PM,55.4,51.8,88,30.07,10.0,Calm,Calm,-,N/A,,Clear,0,2013-07-25 04:56:00